Location: Newark
(55.2875°N, 3.1864°W)
Time: 18:31:15
(UTC+00:00)

ISS - Pass Details

Date: 03 February 2020
Orbit: 416 x 422 km, 51.6° (Epoch: 17 February)

Event Time Altitude Azimuth Distance (km) Brightness Sun altitude
Rises 17:28:37 0° 267° (W) 2,379 1.8 -5.6°
Reaches altitude 10° 17:30:47 10° 260° (W) 1,513 0.8 -5.9°
Maximum altitude 17:34:01 42° 188° (S) 618 -2.6 -6.3°
Drops below altitude 10° 17:37:14 10° 116° (ESE) 1,508 -1.3 -6.7°
Enters shadow 17:38:39 - 111° (ESE) 2,071 -0.7 -6.9°
